Regional Weather Roundup
Issued by NWS

Home | Current Version | Previous Version | Graphics & Text | Print | Product List | Glossary On
Versions: 1 2 3 4 5 6 7 8 9 10 11 12 13 14 15 16 17 18 19 20 21 22 23 24 25 26 27 28 29 30 31 32 33 34 35 36 37 38 39 40 41 42 43 44 45 46 47 48 49 50
000
ASUS45 KABQ 210901
RWRNM
WEATHER ROUNDUP FOR NEW MEXICO
NATIONAL WEATHER SERVICE ALBUQUERQUE NM
300 AM MDT THU AUG 21 2014

NOTE: "FAIR" MEANS FEW OR NO CLOUDS BELOW 12,000 FEET AGL WITH NO
       SIGNIFICANT WEATHER OR OBSTRUCTIONS TO VISION.

      THIS PRODUCT IS RELEASED AS TWO VERSIONS.  ONE VERSION NEAR
      THE TOP OF THE HOUR CONTAINING PRELIMINARY DATA FROM ALBUQUERQUE
      AND OTHER STATIONS.  A FINAL VERSION WITH ADDITIONAL DATA IS
      ISSUED ABOUT 10 MINUTES AFTER THE HOUR.

NMZ501-503-504-510>518-211000-
NORTHWEST PLATEAU/NORTHCENTRAL MOUNTAINS

CITY           SKY/WX    TMP DP  RH WIND       PRES   REMARKS
FARMINGTON     CLEAR     61  39  44 W5        30.12S
LOS ALAMOS     CLEAR     64  38  39 N3        30.21S
SANTA FE       CLEAR     55  41  59 N7        30.14F
TAOS           PTCLDY    50  36  57 N5        30.22S
ANGEL FIRE     FAIR      40  37  86 CALM      30.29S

$$
NMZ402-403-502-505>509-211000-
WESTCENTRAL MOUNTAINS/SOUTHWEST MOUNTAINS

CITY           SKY/WX    TMP DP  RH WIND       PRES   REMARKS
GALLUP         PTCLDY    53  39  59 CALM      30.21F
SILVER CITY    CLEAR     64  50  59 N10       30.14F

$$
NMZ407-409-411-412-211000-
SOUTHERN DESERTS

CITY           SKY/WX    TMP DP  RH WIND       PRES   REMARKS
LORDSBURG      FAIR      64  54  68 CALM      30.07F
DEMING         CLEAR     66  51  58 SW9       30.06S
LAS CRUCES     CLEAR     69  49  49 CALM      30.06R
HOLLOMAN AFB   PTCLDY    73  46  37 SE12      29.99F
ALAMOGORDO     PTCLDY    66  46  48 SE5       30.02S
T OR C         CLEAR     71  46  40 W5        30.05S

$$
NMZ519>523-211000-
CENTRAL VALLEYS/CENTRAL HIGHLANDS

CITY           SKY/WX    TMP DP  RH WIND       PRES   REMARKS
ALBUQUERQUE    PTCLDY    65  47  52 SE7       30.09S
DOUBLE EAGLE   PTCLDY    63  40  43 W5        30.14R
CLINES CORNERS CLEAR     58  42  55 W10       30.17F
BELEN          FAIR      64  44  48 W6        30.08F
SOCORRO        FAIR      76  42  29 W17G23    30.04F

$$
NMZ524>526-539-540-211000-
SOUTHCENTRAL MOUNTAINS

CITY           SKY/WX    TMP DP  RH WIND       PRES   REMARKS
RUIDOSO        NOT AVBL

$$
NMZ527>531-211000-
NORTHEAST HIGHLANDS/NORTHEAST PLAINS

CITY           SKY/WX    TMP DP  RH WIND       PRES   REMARKS
LAS VEGAS      CLEAR     58  43  57 NW5       30.15S
RATON          CLEAR     53  49  86 N7        30.08S
CLAYTON        CLEAR     67  56  67 SW9       29.99R

$$
NMZ532>537-211000-
EASTCENTRAL PLAINS

CITY           SKY/WX    TMP DP  RH WIND       PRES   REMARKS
TUCUMCARI      CLEAR     74  59  59 S12       29.94F
CANNON AFB     NOT AVBL
CLOVIS AIRPORT   N/A     68  61  77 S8        30.03S

$$
NMZ028-029-538-211000-
SOUTHEAST PLAINS

CITY           SKY/WX    TMP DP  RH WIND       PRES   REMARKS
ROSWELL        CLEAR     71  61  70 S8        29.95S
ARTESIA        CLEAR     72  59  64 CALM      29.96S
CARLSBAD       CLEAR     74  60  61 W6        29.94R
HOBBS          CLEAR     73  61  64 S12G18    29.99S


$$


USA.gov is the U.S. government's official web portal to all federal, state and local government web resources and services.